星链-4050 (STARLINK-4050 )

导读 | 星芒AI

STARLINK-4050 是 SpaceX 星链计划中的一颗低轨通信卫星,属于第 17 批组网发射的星链卫星之一。该卫星运行在约 550 公里的近地轨道,旨在为全球用户提供高速互联网服务。它采用先进的相控阵天线和激光通信技术,具备高带宽和低延迟特性,支持偏远地区的网络接入。作为星链星座的重要组成部分,STARLINK-4050 有助于提升全球互联网覆盖范围和连接质量。

基本信息
目录编号:
53274
目录名称:
STARLINK-4050
国际标识:
2022-086AJ
轨道中心:
EARTH
卫星名称:
星链-4050
卫星全名:
星链-4050 (STARLINK-4050 )
卫星状态:
在轨 (已飞行1246 天)
发射日期:
2022-07-24 UTC
国别 :
美国 (US)
星等 :
--
轨道信息
数据来源 国际轨道数据 AOE轨道数据
星历时间 2025-12-21T01:58:08+0800
11小时前
查看轨道信息
2025-12-20T13:00:00+0800
1天前
查看轨道信息
半长轴 6917.888km 6917.858km
偏心率 0.0001374 0.0002026
轨道倾角 53.216° 53.218°
近地点辐角 88.134° 58.269°
升交点赤经 178.498° 180.920°
平近点角 271.981° 245.086°
近地点 538.8km 538.319km
远地点 540.702km 541.123km
周期 95.438分钟 95.437分钟
每日圈数 15.088377 15.088476
详细信息
固有亮度:
5
最大亮度:
2.5
卫星平台:
Starlink v1.5
覆盖范围:
全球
运营商:
太空探索技术公司
运营商所在国:
美国
制造商(研发单位):
太空探索技术公司
制造商所在国:
美国
使用方式:
暂无
卫星简介
星链(Starlink)计划是由太空探索技术公司(SpaceX)提出的一个巨型低轨卫星互联网星座项目,计划在2019年至2024年间在太空搭建由约1.2万颗卫星组成的“星链”网络,其中1584颗将部署在地球上空550千米处的近地轨道,并从2020年开始工作。该卫星仍在工作。
2D轨道图
3D轨道图
轨道高度分析图
轨道倾角分析图
轨道综合分析图
查看轨道综合分析图